Вернуться в каталог

STARLINK-31935

АктивенСвязьVLEO
NORAD 59876·PAYLOAD·🇺🇸 United States

Запущен May 24, 2024 с Cape Canaveral Space Force Station

Loading…

Ближайшие Пролёты (ближайшие 24 часа)

TLE

СвежийSource: CelesTrak SupGP

Эпоха: Sep 14, 2026, 14:54 UTC

1 59876C 24098U   26257.62131944  .00039220  00000+0  14207-2 0  2578
2 59876  43.0001 291.2376 0001423 274.7112 247.9215 15.27554429    14

Отслеживайте STARLINK-31935 в реальном времени с AllMySat

Download on the App Store